Date,TemperatureHighF,TemperatureAvgF,TemperatureLowF,DewpointHighF,DewpointAvgF,DewpointLowF,HumidityHigh,HumidityAvg,HumidityLow,PressureMaxIn,PressureMinIn,WindSpeedMaxMPH,WindSpeedAvgMPH,GustSpeedMaxMPH,PrecipitationSumIn
2013-1-1,38,17,-2,19,3,-7,85,57,32,30.36,30.27,5,2,11,0.00
2013-1-2,39,23,10,9,1,-6,52,38,26,30.36,30.27,6,3,15,0.00
2013-1-3,35,23,14,6,-2,-7,45,33,28,30.42,30.30,12,3,16,0.00
2013-1-4,40,19,0,9,-3,-16,45,38,26,30.45,30.33,4,1,6,0.00
2013-1-5,54,23,3,14,-1,-13,49,38,18,30.51,30.39,4,1,7,0.02
2013-1-6,50,26,11,12,3,-4,53,39,19,30.45,30.15,6,1,10,0.06
2013-1-7,44,24,9,13,4,-4,65,43,28,30.24,30.12,6,1,10,0.00
2013-1-8,53,29,9,16,5,-7,48,38,21,30.42,30.21,6,2,14,0.05
2013-1-9,53,35,0,19,13,8,53,42,26,30.51,30.30,6,2,14,0.04
2013-1-10,45,32,23,26,13,8,94,46,29,30.30,29.92,11,3,17,0.00
2013-1-11,28,16,1,17,-3,-22,77,44,24,30.09,29.92,8,3,17,0.00
2013-1-12,30,10,-6,2,-14,-28,51,33,29,30.15,30.03,6,2,9,0.00
2013-1-13,28,10,-9,0,-14,-29,44,33,26,30.15,30.03,6,2,11,0.00
2013-1-14,24,8,-3,1,-14,-24,49,35,33,30.27,30.07,5,1,10,0.00
2013-1-15,34,12,-8,6,-10,-28,47,36,30,30.48,30.24,7,2,11,0.00
2013-1-16,42,21,3,12,0,-13,55,40,29,30.54,30.45,6,2,13,0.00
2013-1-17,43,24,11,13,4,-6,61,43,29,30.54,30.45,7,2,12,0.00
2013-1-18,48,24,5,16,4,-7,74,46,28,30.54,30.42,5,1,8,0.01
2013-1-19,50,25,5,19,6,-6,76,47,26,30.57,30.45,5,1,12,0.00
2013-1-20,53,26,9,19,6,-4,60,45,26,30.51,30.39,5,1,8,0.01
2013-1-21,53,26,7,15,4,-4,67,42,18,30.48,30.39,5,1,10,0.01
2013-1-22,58,32,14,17,7,-2,54,37,17,30.54,30.45,5,1,8,0.01
2013-1-23,59,38,22,21,12,4,48,36,19,30.57,30.45,4,1,7,0.00
2013-1-24,49,39,34,36,26,16,93,63,37,30.51,30.45,6,1,9,0.02
2013-1-25,57,42,37,41,34,27,97,78,36,30.51,30.33,5,1,6,0.33
2013-1-26,42,39,37,41,38,35,98,96,90,30.36,30.12,5,1,7,1.14
2013-1-27,46,38,32,38,34,26,98,86,55,30.24,30.12,6,2,10,0.21
2013-1-28,37,28,17,31,17,5,97,66,38,30.15,30.01,6,3,12,0.00
2013-1-29,33,22,9,13,5,-5,62,49,35,30.30,30.07,9,3,16,0.00
2013-1-30,52,29,8,19,8,-7,67,43,27,30.42,30.30,6,2,10,0.06
2013-1-31,54,32,17,22,16,10,77,55,27,30.45,30.39,6,1,10,0.04